Powrót do katalogu

SCOUT G-1 DEB

AktywnyPO
NORAD 18525·DEBRIS·🇺🇸 United States

Wystrzelony Nov 14, 1986 z Vandenberg Space Force Base

Loading…

Następne Przeloty (najbliższe 24 godziny)

TLE

ŚwieżeSource: Space-Track

Epoka: Sep 14, 2026, 04:33 UTC

1 18525U 86088D   26257.18970705  .00000163  00000-0  13196-3 0  9993
2 18525  89.9219 342.1699 0005904 146.5093 242.0371 13.86427449 10582

Śledź SCOUT G-1 DEB w czasie rzeczywistym z AllMySat

Download on the App Store